Location: Arroyo de Valdeoliva
(40.1604°N, 4.9878°W)
Time: 11:33:41
(UTC+00:00)

Tiangong - Pass Details

Date: 23 February 2026
Orbit: 381 x 391 km, 41.5° (Epoch: 8 March)

Event Time Altitude Azimuth Distance (km) Brightness Sun altitude
Rises 18:44:05 0° 277° (W) 2,258 3.7 -8.2°
Reaches altitude 10° 18:46:35 10° 257° (WSW) 1,399 2.3 -8.7°
Maximum altitude 18:48:49 18° 212° (SSW) 1,018 0.5 -9.1°
Drops below altitude 10° 18:51:03 10° 166° (SSE) 1,390 0.6 -9.6°
Sets 18:53:31 0° 146° (SSE) 2,236 1.4 -10.0°
